Regional Weather Roundup
Issued by NWS

Home | Current Version | Previous Version | Text Only | Print | Product List | Glossary On
Versions: 1 2 3 4 5 6 7 8 9 10 11 12 13 14 15 16 17 18 19 20 21 22 23 24 25 26 27 28
000
ASUS45 KCYS 230310
RWRWY

WYOMING REGIONAL WEATHER ROUNDUP
NATIONAL WEATHER SERVICE CHEYENNE WY
900 PM MDT SUN OCT 22 2017

NOTE:  "FAIR" INDICATES FEW OR NO CLOUDS BELOW 12,000 FEET
WITH NO SIGNIFICANT WEATHER AND/OR OBSTRUCTIONS TO VISIBILITY.

WYZ001-230400-
YELLOWSTONE NATIONAL PARK

CITY           SKY/WX    TMP DP  RH WIND       PRES   REMARKS
LK YELLOWSTONE   N/A     36  35  96 W8        30.27R WCI  30
W YELLOWSTONE  NOT AVBL

$$
WYZ002>013-054>058-071-098>099-230400-
NORTHERN WYOMING

CITY           SKY/WX    TMP DP  RH WIND       PRES   REMARKS
JACKSON        CLOUDY    48  33  56 SW20G36   30.29S
CODY           LGT RAIN  50  37  61 W21G30    30.12R
GREYBULL       CLOUDY    54  41  61 NW16G29   30.07R
WORLAND        MOCLDY    44  33  65 E8        30.06R
SHERIDAN       LGT RAIN  53  41  63 NW24G31   30.04R
BUFFALO        MOCLDY    51  36  56 N17G28    30.07R
GILLETTE       FAIR      53  35  50 NW21G31   30.03R
HULETT         RAIN      54  34  47 W20G44    30.00R
NEWCASTLE      FAIR      55  28  35 NW15      29.98R

$$
WYZ014>020-022>026-101>103-230400-
CENTRAL WYOMING

CITY           SKY/WX    TMP DP  RH WIND       PRES   REMARKS
BIG PINEY      CLOUDY    47  31  53 NW15G23   30.35R
PINEDALE       CLOUDY    39  30  70 NE3       30.35S
DUBOIS         DRIZZLE   43  32  65 W23G35    30.20R
LANDER         FAIR      56  29  35 W21G30    30.10S
RIVERTON       FAIR      50  30  46 N5        30.13R
CASPER         FAIR      47  30  51 W14       30.11R
DOUGLAS        FAIR      58  29  33 W20G33    30.04R

$$
WYZ021-027>030-104>119-230400-
SOUTHERN WYOMING

CITY           SKY/WX    TMP DP  RH WIND       PRES   REMARKS
EVANSTON       CLOUDY    49  26  41 SW5       30.43R
KEMMERER       MOCLDY    45  28  53 W13G20    30.38R
FORT BRIDGER   FAIR      50  26  38 W20       30.41R
ROCK SPRINGS   CLOUDY    49  24  37 W15       30.36R
DIXON          MOCLDY    48  29  46 W9        30.38S
RAWLINS        FAIR      51  25  36 W29G45    30.24S
SARATOGA       FAIR      50  28  43 SW17G30   30.28F
LARAMIE        FAIR      50  25  37 W17G28    30.22R
CHEYENNE       FAIR      54  26  34 VRB5      30.14S
TORRINGTON     FAIR      62  26  25 W18       30.00S
PINE BLUFFS    FAIR      54  27  35 W13G18    30.12R

$$




USA.gov is the U.S. government's official web portal to all federal, state and local government web resources and services.